TimeMST,TemperatureF,Dew PointF,Humidity,Sea Level PressureIn,VisibilityMPH,Wind Direction,Wind SpeedMPH,Gust SpeedMPH,PrecipitationIn,Events,Conditions,WindDirDegrees,DateUTC
12:53 AM,-5.1,-8.0,87,30.38,9.0,Calm,Calm,-,N/A,,Clear,0,2012-12-29 07:53:00
1:53 AM,-6.0,-9.0,87,30.38,9.0,Calm,Calm,-,N/A,,Unknown,0,2012-12-29 08:53:00
2:53 AM,-6.0,-9.9,83,30.38,8.0,South,4.6,-,N/A,,Clear,180,2012-12-29 09:53:00
3:53 AM,-9.0,-13.0,83,30.40,10.0,Calm,Calm,-,N/A,,Clear,0,2012-12-29 10:53:00
4:53 AM,-9.0,-14.1,79,30.40,10.0,North,3.5,-,N/A,,Clear,360,2012-12-29 11:53:00
5:53 AM,-9.0,-13.0,83,30.40,10.0,Calm,Calm,-,N/A,,Clear,0,2012-12-29 12:53:00
6:16 AM,-7.6,-13.0,77,30.14,9.0,Calm,Calm,-,N/A,,Partly Cloudy,0,2012-12-29 13:16:00
6:53 AM,-9.0,-13.0,83,30.42,9.0,Calm,Calm,-,N/A,,Scattered Clouds,0,2012-12-29 13:53:00
7:53 AM,-9.0,-15.0,75,30.43,9.0,Calm,Calm,-,N/A,,Clear,0,2012-12-29 14:53:00
8:09 AM,-9.4,-11.2,92,30.14,6.0,Calm,Calm,-,N/A,,Partly Cloudy,0,2012-12-29 15:09:00
8:53 AM,-7.1,-9.9,87,30.43,10.0,Calm,Calm,-,N/A,,Clear,0,2012-12-29 15:53:00
9:53 AM,-2.0,-8.0,76,30.42,9.0,North,3.5,-,N/A,,Clear,350,2012-12-29 16:53:00
10:27 AM,-0.4,-4.0,85,30.13,2.5,East,3.5,-,N/A,,Partly Cloudy,100,2012-12-29 17:27:00
10:38 AM,-0.4,-4.0,85,30.13,6.0,Calm,Calm,-,N/A,,Partly Cloudy,0,2012-12-29 17:38:00
10:53 AM,1.0,-2.9,83,30.40,9.0,Calm,Calm,-,N/A,,Clear,0,2012-12-29 17:53:00
11:53 AM,3.0,-0.9,84,30.36,10.0,Calm,Calm,-,N/A,,Clear,0,2012-12-29 18:53:00
12:53 PM,5.0,-0.0,80,30.30,9.0,Calm,Calm,-,N/A,,Clear,0,2012-12-29 19:53:00
1:53 PM,6.1,1.0,80,30.27,10.0,Calm,Calm,-,N/A,,Clear,0,2012-12-29 20:53:00
2:53 PM,8.1,1.9,76,30.25,10.0,NNW,3.5,-,N/A,,Clear,330,2012-12-29 21:53:00
3:53 PM,9.0,1.9,73,30.25,10.0,Calm,Calm,-,N/A,,Clear,0,2012-12-29 22:53:00
4:53 PM,8.1,1.9,76,30.23,10.0,North,3.5,-,N/A,,Clear,350,2012-12-29 23:53:00
5:53 PM,7.0,1.0,77,30.22,10.0,Calm,Calm,-,N/A,,Clear,0,2012-12-30 00:53:00
6:53 PM,7.0,1.0,77,30.22,10.0,Calm,Calm,-,N/A,,Clear,0,2012-12-30 01:53:00
7:53 PM,3.0,-0.0,87,30.23,7.0,South,3.5,-,N/A,,Clear,180,2012-12-30 02:53:00
8:53 PM,1.9,-0.9,88,30.24,9.0,SE,4.6,-,N/A,,Partly Cloudy,140,2012-12-30 03:53:00
9:53 PM,3.9,-0.9,80,30.22,6.0,Calm,Calm,-,N/A,,Haze,0,2012-12-30 04:53:00
10:53 PM,3.0,-2.0,80,30.23,9.0,SE,3.5,-,N/A,,Clear,140,2012-12-30 05:53:00
11:53 PM,1.0,-2.9,83,30.22,8.0,Calm,Calm,-,N/A,,Clear,0,2012-12-30 06:53:00